1520240401.0,37649,13.25,72274.0,6.89,-29.95,-30.83,0,*7A
1520240402.25,37650,13.25,72272.0,6.85,-30.61,-31.51,0,*73
1520240403.48,37651,13.25,72268.0,6.83,-30.23,-31.11,0,*76
1520240404.73,37652,13.25,72270.5,6.81,-29.57,-30.51,0,*79
1520240405.93,37653,13.25,72268.5,6.79,-29.57,-30.45,0,*7A
1520240407.17,37654,13.31,72274.8,6.75,-29.39,-30.45,0,*79
1520240408.43,37655,13.25,72272.3,6.73,-29.79,-30.77,0,*7B
1520240409.65,37656,13.25,72274.3,6.71,-29.83,-30.83,0,*74
1520240410.89,37657,13.25,72268.5,6.73,-28.75,-29.61,0,*7B
1520240412.17,37658,13.25,72268.5,6.69,-27.45,-28.09,0,*7C
1520240413.4,37659,13.25,72274.5,6.69,-27.51,-28.31,0,*73
1520240414.65,37660,13.25,72274.3,6.69,-27.93,-28.59,0,*79
1520240415.9,37661,13.25,72274.0,6.69,-27.83,-28.53,0,*73
1520240417.11,37662,13.31,72274.5,6.67,-27.67,-28.37,0,*76
1520240418.38,37663,13.31,72272.8,6.73,-26.55,-27.35,0,*7F
1520240419.66,37664,13.25,72272.5,6.73,-26.71,-27.35,0,*7E
1520240420.86,37665,13.25,72272.0,6.71,-26.45,-27.07,0,*7B
1520240422.08,37666,13.25,72272.5,6.73,-25.91,-26.61,0,*71
1520240423.34,37667,13.25,72272.0,6.73,-26.33,-27.07,0,*7A
1520240424.58,37668,13.25,72274.3,6.75,-26.65,-27.35,0,*71
1520240425.79,37669,13.25,72274.5,6.75,-26.87,-27.45,0,*7B
1520240427.05,37670,13.25,72274.3,6.75,-26.77,-27.45,0,*7C
1520240428.3,37671,13.25,72274.3,6.75,-27.39,-28.09,0,*71
1520240429.56,37672,13.25,72272.8,6.75,-26.93,-27.61,0,*72
1520240430.78,37673,13.25,72274.5,6.79,-27.29,-27.99,0,*78
1520240432.03,37674,13.25,72276.8,6.79,-27.39,-28.21,0,*72
1520240433.26,37675,13.25,72276.0,6.75,-28.59,-29.45,0,*75
1520240434.48,37676,13.25,72272.5,6.79,-28.53,-29.39,0,*7B
1520240435.73,37677,13.25,72274.8,6.75,-28.25,-29.13,0,*7F
1520240436.98,37678,13.25,72272.0,6.73,-28.05,-28.97,0,*79
1520240438.24,37679,13.25,72272.0,6.71,-28.79,-29.51,0,*7A
1520240439.49,37680,13.25,72272.5,6.71,-27.83,-28.59,0,*7F
1520240440.74,37681,13.25,72272.5,6.71,-27.83,-28.59,0,*7E
1520240441.95,37682,13.25,72276.5,6.71,-26.49,-27.29,0,*72
1520240443.2,37683,13.25,72276.0,6.71,-27.23,-27.99,0,*75
1520240444.42,37684,13.25,72272.8,6.73,-27.03,-27.71,0,*74
1520240445.66,37685,13.25,72272.8,6.71,-27.07,-27.83,0,*7E
1520240446.91,37686,13.25,72272.5,6.73,-28.91,-29.79,0,*74
1520240448.14,37687,13.25,72270.8,6.71,-28.09,-28.85,0,*74
1520240449.39,37688,13.25,72270.5,6.71,-27.39,-27.99,0,*75
1520240450.59,37689,13.31,72276.3,6.71,-27.13,-27.93,0,*76
1520240451.84,37690,13.25,72272.3,6.73,-27.03,-27.61,0,*70
1520240453.11,37691,13.25,72272.8,6.73,-26.71,-27.39,0,*78
1520240454.36,37692,13.25,72272.0,6.73,-26.23,-26.93,0,*7D
1520240455.58,37693,13.25,72274.8,6.73,-26.07,-26.87,0,*7F
1520240456.84,37694,13.25,72276.0,6.73,-26.93,-27.55,0,*7B
1520240458.06,37695,13.25,72274.3,6.73,-27.89,-28.53,0,*79
1520240459.31,37696,13.31,72278.8,6.73,-29.29,-30.11,0,*71
1520240460.54,37697,13.25,72272.5,6.71,-28.69,-29.51,0,*7B
1520240461.77,37698,13.25,72272.0,6.71,-27.51,-27.99,0,*7A
1520240463.02,37699,13.25,72272.5,6.71,-27.23,-27.83,0,*75
1520240464.27,37700,13.25,72276.5,6.71,-27.39,-28.09,0,*72
1520240465.53,37701,13.31,72278.3,6.71,-27.61,-28.25,0,*70
1520240466.77,37702,13.25,72272.0,6.71,-27.29,-27.99,0,*77
1520240468.02,37703,13.31,72278.3,6.71,-28.63,-29.35,0,*7F
1520240469.3,37704,13.25,72272.0,6.69,-27.83,-28.59,0,*7B
1520240470.52,37705,13.25,72274.0,6.71,-26.65,-27.45,0,*78
1520240471.75,37706,13.25,72272.0,6.71,-26.23,-26.97,0,*77
1520240472.95,37707,13.25,72274.8,6.71,-25.91,-26.61,0,*75
1520240474.17,37708,13.25,72270.0,6.73,-25.87,-26.61,0,*7F
1520240475.42,37709,13.25,72272.5,6.73,-25.45,-26.07,0,*70
1520240476.65,37710,13.25,72274.5,6.75,-25.71,-26.39,0,*74
1520240477.88,37711,13.25,72274.3,6.79,-26.81,-27.55,0,*7E
1520240479.11,37712,13.25,72276.3,6.79,-27.29,-27.99,0,*7E
1520240480.33,37713,13.25,72272.5,6.79,-25.87,-26.55,0,*78
1520240481.52,37714,13.25,72274.5,6.79,-25.87,-26.49,0,*72
1520240482.79,37715,13.25,72274.8,6.81,-27.23,-28.09,0,*72
1520240484.04,37716,13.25,72276.0,6.81,-27.77,-28.63,0,*7C
1520240485.29,37717,13.25,72272.5,6.81,-28.09,-28.69,0,*71
1520240486.51,37718,13.25,72272.5,6.81,-26.49,-27.13,0,*76
1520240487.76,37719,13.25,72272.5,6.81,-25.97,-26.61,0,*73
1520240488.97,37720,13.25,72276.5,6.83,-26.65,-27.29,0,*78
1520240490.2,37721,13.31,72278.3,6.83,-27.67,-28.43,0,*79
1520240491.41,37722,13.25,72274.8,6.83,-27.07,-27.67,0,*75
1520240492.64,37723,13.25,72272.8,6.83,-26.65,-27.23,0,*71
1520240493.87,37724,13.25,72274.3,6.83,-26.45,-26.97,0,*7A
1520240495.12,37725,13.25,72274.0,6.83,-26.13,-26.77,0,*76
1520240496.38,37726,13.25,72276.3,6.85,-26.17,-26.77,0,*77
1520240497.63,37727,13.25,72276.0,6.87,-25.71,-26.23,0,*76
1520240498.88,37728,13.31,72278.3,6.87,-25.87,-26.55,0,*71
1520240500.11,37729,13.31,72276.0,6.87,-27.03,-27.55,0,*7F
1520240501.34,37730,13.25,72278.8,6.87,-27.29,-27.93,0,*75
1520240502.54,37731,13.25,72272.8,6.89,-27.13,-27.71,0,*7F
1520240503.78,37732,13.25,72278.5,6.87,-27.19,-27.93,0,*74
1520240505.07,37733,13.31,72278.3,6.87,-27.39,-28.21,0,*71
1520240506.3,37734,13.25,72274.3,6.87,-27.07,-27.89,0,*76
1520240507.52,37735,13.31,72278.8,6.87,-28.37,-29.07,0,*73
1520240508.75,37736,13.25,72274.0,6.85,-27.29,-28.05,0,*71
1520240510.0,37737,13.25,72276.0,6.85,-28.59,-29.39,0,*76
1520240511.21,37738,13.31,72278.3,6.83,-28.97,-29.83,0,*7C
1520240512.44,37739,13.25,72276.0,6.83,-27.93,-28.63,0,*79
1520240513.71,37740,13.25,72278.8,6.81,-27.83,-28.63,0,*74
1520240514.91,37741,13.25,72278.0,6.83,-27.13,-27.77,0,*74
1520240516.16,37742,13.25,72276.0,6.83,-27.45,-28.09,0,*72
1520240517.41,37743,13.25,72278.8,6.83,-27.83,-28.63,0,*75
1520240518.66,37744,13.25,72276.0,6.81,-27.99,-28.85,0,*73
1520240519.89,37745,13.25,72274.3,6.83,-27.77,-28.47,0,*7E
1520240521.16,37746,13.25,72272.0,6.81,-27.83,-28.63,0,*72
1520240522.4,37747,13.25,72274.3,6.81,-27.83,-28.69,0,*79
1520240523.63,37748,13.31,72276.5,6.81,-27.51,-28.31,0,*74
1520240524.9,37749,13.25,72274.0,6.81,-27.83,-28.63,0,*7D
1520240526.15,37750,13.25,72274.0,6.81,-28.53,-29.35,0,*75
1520240527.34,37751,13.25,72274.8,6.79,-28.31,-29.23,0,*70
1520240528.59,37752,13.25,72274.5,6.79,-28.05,-28.75,0,*76
1520240529.83,37753,13.25,72274.8,6.75,-28.09,-28.79,0,*7B
1520240531.03,37754,13.25,72274.5,6.75,-29.23,-30.11,0,*72
1520240532.26,37755,13.31,72276.0,6.75,-28.63,-29.45,0,*7F
1520240533.51,37756,13.25,72274.5,6.73,-28.79,-29.61,0,*77
1520240534.78,37757,13.25,72276.3,6.73,-28.43,-29.29,0,*73
1520240536.04,37758,13.31,72278.8,6.71,-28.59,-29.35,0,*78
1520240537.25,37759,13.25,72278.3,6.71,-28.15,-29.13,0,*75
1520240538.51,37760,13.31,72278.0,6.69,-28.09,-28.85,0,*75
1520240539.78,37761,13.25,72272.8,6.69,-28.25,-29.13,0,*74
1520240540.99,37762,13.31,72278.8,6.67,-29.57,-30.45,0,*76
1520240542.22,37763,13.25,72276.5,6.67,-28.69,-29.51,0,*76
1520240543.47,37764,13.25,72276.3,6.67,-27.19,-27.83,0,*78
1520240544.7,37765,13.31,72282.5,6.67,-27.89,-28.63,0,*71
1520240545.96,37766,13.25,72276.8,6.67,-28.21,-29.01,0,*7A
1520240547.24,37767,13.31,72278.8,6.69,-29.13,-30.01,0,*7D
1520240548.47,37768,13.25,72276.0,6.67,-29.01,-29.95,0,*7A
1520240549.72,37769,13.25,72274.0,6.65,-28.25,-29.07,0,*75
1520240550.97,37770,13.25,72274.5,6.65,-27.89,-28.43,0,*75
1520240552.21,37771,13.25,72274.0,6.65,-27.19,-27.93,0,*7F
1520240553.46,37772,13.31,72276.8,6.65,-27.51,-28.09,0,*7C
1520240554.71,37773,13.25,72274.8,6.65,-27.39,-27.93,0,*7F
1520240555.98,37774,13.25,72272.3,6.65,-26.71,-27.35,0,*79
1520240557.23,37775,13.31,72276.3,6.65,-26.39,-26.93,0,*79
1520240558.47,37776,13.25,72272.8,6.67,-26.55,-27.29,0,*72
1520240559.72,37777,13.31,72278.0,6.69,-26.97,-27.67,0,*79
1520240560.96,37778,13.25,72274.8,6.67,-28.53,-29.35,0,*77
1520240562.2,37779,13.31,72274.0,6.67,-29.07,-29.89,0,*71
1520240563.45,37780,13.31,72276.0,6.65,-28.91,-29.79,0,*74
1520240564.7,37781,13.25,72268.3,6.63,-29.13,-30.01,0,*7F
1520240565.94,37782,13.25,72274.5,6.65,-29.57,-30.33,0,*7B
1520240567.17,37783,13.31,72276.5,6.61,-29.45,-30.23,0,*7C
1520240568.44,37784,13.31,72272.8,6.61,-27.99,-28.79,0,*72
1520240569.69,37785,13.25,72274.0,6.59,-28.47,-29.29,0,*70
1520240570.95,37786,13.31,72272.0,6.59,-30.17,-30.89,0,*7D
1520240572.21,37787,13.25,72270.5,6.57,-29.01,-29.95,0,*78
1520240573.46,37788,13.31,72272.8,6.53,-30.01,-30.83,0,*74
1520240574.72,37789,13.25,72272.3,6.53,-29.79,-30.61,0,*7E
1520240575.96,37790,13.25,72272.3,6.49,-28.43,-29.13,0,*78
1520240577.21,37791,13.31,72274.5,6.51,-28.37,-29.13,0,*73
1520240578.5,37792,13.31,72278.3,6.51,-28.05,-28.59,0,*7E
1520240579.75,37793,13.25,72274.8,6.51,-27.51,-28.09,0,*74
1520240580.99,37794,13.31,72274.3,6.53,-27.35,-27.93,0,*7F
1520240582.27,37795,13.31,72276.5,6.53,-27.39,-28.05,0,*72
1520240583.56,37796,13.31,72276.5,6.53,-26.77,-27.35,0,*76
1520240584.8,37797,13.25,72272.8,6.53,-26.55,-27.07,0,*76
1520240586.09,37798,13.31,72278.0,6.57,-26.17,-26.97,0,*73
1520240587.37,37799,13.25,72272.8,6.57,-26.81,-27.45,0,*73
1520240588.62,37800,13.25,72272.3,6.61,-27.45,-27.93,0,*7B
1520240589.86,37801,13.25,72274.8,6.59,-26.65,-27.23,0,*79
1520240591.09,37802,13.25,72274.3,6.59,-26.61,-27.23,0,*7E
1520240592.33,37803,13.25,72276.5,6.61,-26.65,-27.29,0,*7A
1520240593.55,37804,13.25,72274.5,6.61,-27.13,-27.77,0,*76
1520240594.81,37805,13.31,72278.3,6.61,-27.93,-28.63,0,*75
1520240596.06,37806,13.31,72274.3,6.59,-28.25,-28.79,0,*74
1520240597.29,37807,13.25,72272.3,6.59,-28.75,-29.61,0,*78
1520240598.53,37808,13.31,72274.8,6.59,-28.47,-29.13,0,*73
1520240599.75,37809,13.31,72272.8,6.59,-28.85,-29.67,0,*7F
1520240601.0,37810,13.31,72272.3,6.57,-29.07,-29.89,0,*72
1520240602.25,37811,13.25,72272.3,6.53,-28.97,-29.73,0,*7A
1520240603.48,37812,13.31,72272.3,6.53,-28.53,-29.23,0,*74
1520240604.73,37813,13.31,72272.3,6.53,-28.53,-29.39,0,*7E
1520240605.96,37814,13.31,72274.3,6.53,-27.67,-28.37,0,*7E
1520240607.18,37815,13.31,72274.3,6.53,-27.03,-27.67,0,*77
1520240608.43,37816,13.31,72274.0,6.53,-28.69,-29.39,0,*72
1520240609.68,37817,13.25,72272.3,6.53,-27.23,-27.89,0,*77
1520240610.92,37818,13.31,72278.0,6.53,-27.19,-27.77,0,*70
1520240612.15,37819,13.25,72274.0,6.53,-27.03,-27.71,0,*7C
1520240613.4,37820,13.31,72274.0,6.53,-27.19,-27.89,0,*7A
1520240614.64,37821,13.31,72272.8,6.53,-28.53,-29.29,0,*7E
1520240615.89,37822,13.25,72270.8,6.53,-27.39,-27.93,0,*71
1520240617.14,37823,13.31,72272.8,6.57,-27.13,-27.83,0,*7D
1520240618.4,37824,13.25,72272.0,6.57,-26.03,-26.71,0,*76
1520240619.65,37825,13.31,72272.0,6.53,-26.49,-27.19,0,*72
1520240620.93,37826,13.31,72272.3,6.57,-26.29,-26.81,0,*73
1520240622.19,37827,13.31,72274.5,6.59,-26.55,-27.23,0,*7E
1520240623.47,37828,13.25,72274.0,6.61,-26.77,-27.39,0,*71
1520240624.73,37829,13.31,72274.5,6.61,-26.45,-26.97,0,*74
1520240625.98,37830,13.25,72272.3,6.61,-25.81,-26.45,0,*78
1520240627.23,37831,13.25,72272.5,6.63,-26.17,-26.71,0,*70
1520240628.47,37832,13.31,72278.0,6.65,-26.23,-26.93,0,*7E
1520240629.75,37833,13.31,72276.0,6.65,-26.71,-27.39,0,*79
1520240630.95,37834,13.31,72274.5,6.63,-27.03,-27.71,0,*70
1520240632.2,37835,13.31,72274.3,6.65,-26.61,-27.19,0,*7C
1520240633.42,37836,13.31,72272.3,6.65,-26.87,-27.51,0,*7B
1520240634.66,37837,13.31,72274.5,6.67,-26.03,-26.55,0,*71
1520240635.89,37838,13.31,72272.5,6.67,-25.97,-26.65,0,*73
1520240637.14,37839,13.31,72274.3,6.67,-26.13,-26.71,0,*78
1520240638.38,37840,13.31,72272.8,6.67,-27.29,-27.83,0,*72
1520240639.65,37841,13.25,72274.5,6.69,-27.39,-28.09,0,*71
1520240640.92,37842,13.25,72272.5,6.69,-27.83,-28.59,0,*76
1520240642.2,37843,13.31,72272.5,6.69,-26.81,-27.45,0,*76
1520240643.45,37844,13.25,72274.0,6.71,-26.13,-26.97,0,*7D
1520240644.71,37845,13.25,72272.0,6.71,-26.81,-27.39,0,*72
1520240645.96,37846,13.31,72276.8,6.73,-27.23,-27.89,0,*71
1520240647.2,37847,13.31,72272.5,6.71,-28.47,-29.29,0,*7B
1520240648.44,37848,13.25,72272.0,6.67,-29.51,-30.27,0,*73
1520240649.68,37849,13.31,72274.5,6.67,-28.85,-29.51,0,*73
1520240650.88,37850,13.31,72276.5,6.67,-27.03,-27.55,0,*70
1520240652.13,37851,13.31,72276.8,6.65,-26.61,-27.19,0,*7E
1520240653.34,37852,13.31,72272.3,6.67,-26.49,-27.03,0,*7E
1520240654.6,37853,13.25,72270.3,6.69,-26.77,-27.29,0,*74
1520240655.83,37854,13.31,72272.0,6.69,-26.61,-27.29,0,*74
1520240657.08,37855,13.31,72274.3,6.69,-27.93,-28.59,0,*71
1520240658.32,37856,13.31,72274.0,6.67,-27.67,-28.21,0,*78
1520240659.55,37857,13.31,72274.5,6.69,-26.61,-27.13,0,*7E
1520240660.77,37858,13.31,72276.5,6.69,-27.13,-27.77,0,*77
1520240662.02,37859,13.31,72278.8,6.69,-28.63,-29.45,0,*71
1520240663.25,37860,13.31,72274.8,6.67,-27.83,-28.37,0,*70
1520240664.48,37861,13.25,72272.3,6.67,-27.55,-28.21,0,*7D
1520240665.73,37862,13.31,72274.8,6.69,-26.45,-26.93,0,*77
1520240666.95,37863,13.31,72274.5,6.69,-25.91,-26.45,0,*77
1520240668.2,37864,13.25,72274.5,6.69,-25.97,-26.61,0,*70
1520240669.45,37865,13.31,72278.3,6.69,-25.61,-26.13,0,*7D
1520240670.68,37866,13.25,72274.0,6.73,-25.39,-26.03,0,*79
1520240671.94,37867,13.31,72276.3,6.73,-25.87,-26.33,0,*7E
1520240673.14,37868,13.31,72274.5,6.75,-27.07,-27.71,0,*7A
1520240674.37,37869,13.25,72274.0,6.73,-29.07,-29.83,0,*70
1520240675.58,37870,13.31,72274.5,6.71,-28.97,-29.67,0,*78
1520240676.83,37871,13.31,72272.8,6.71,-27.99,-28.63,0,*7D
1520240678.06,37872,13.31,72276.3,6.67,-27.89,-28.47,0,*7E
1520240679.31,37873,13.31,72278.0,6.69,-26.65,-27.23,0,*7F
1520240680.56,37874,13.31,72276.0,6.71,-26.77,-27.45,0,*72
1520240681.79,37875,13.31,72276.5,6.73,-27.71,-28.37,0,*7C
1520240682.99,37876,13.31,72278.0,6.71,-28.15,-28.85,0,*79
1520240684.25,37877,13.31,72274.3,6.69,-27.51,-28.25,0,*74
1520240685.48,37878,13.31,72278.8,6.67,-26.97,-27.67,0,*77
1520240686.72,37879,13.31,72276.8,6.67,-26.33,-26.87,0,*77
1520240687.95,37880,13.31,72276.0,6.71,-25.81,-26.39,0,*79
1520240689.17,37881,13.31,72276.0,6.71,-26.23,-26.93,0,*73
1520240690.45,37882,13.31,72278.8,6.73,-26.77,-27.45,0,*79
1520240691.72,37883,13.31,72278.0,6.73,-27.35,-27.99,0,*7E
1520240692.94,37884,13.31,72278.5,6.73,-26.23,-26.87,0,*71
1520240694.14,37885,13.31,72278.0,6.75,-25.91,-26.45,0,*72
1520240695.33,37886,13.31,72276.8,6.79,-26.87,-27.51,0,*7D
1520240696.58,37887,13.31,72276.5,6.75,-26.93,-27.45,0,*70
1520240697.81,37888,13.31,72278.0,6.75,-27.23,-27.93,0,*7E
1520240699.06,37889,13.31,72276.5,6.75,-27.35,-28.05,0,*78
1520240700.28,37890,13.25,72276.0,6.75,-27.23,-27.77,0,*7D
1520240701.54,37891,13.31,72278.3,6.79,-26.81,-27.35,0,*7F
1520240702.75,37892,13.31,72278.0,6.79,-25.97,-26.49,0,*72
1520240703.96,37893,13.31,72276.0,6.75,-25.87,-26.39,0,*79
1520240705.15,37894,13.31,72278.0,6.79,-26.87,-27.51,0,*7E
1520240706.38,37895,13.31,72278.3,6.79,-26.65,-27.19,0,*7F
1520240707.58,37896,13.31,72278.8,6.79,-27.03,-27.67,0,*74
1520240708.85,37897,13.31,72274.3,6.81,-26.93,-27.45,0,*7A
1520240710.13,37898,13.31,72276.8,6.81,-26.81,-27.35,0,*71
1520240711.4,37899,13.31,72274.5,6.81,-27.83,-28.63,0,*7F
1520240712.69,37900,13.31,72276.3,6.81,-27.61,-28.25,0,*70
1520240713.94,37901,13.31,72278.0,6.81,-27.07,-27.61,0,*7E
1520240715.19,37902,13.31,72278.3,6.81,-27.29,-27.83,0,*7D
1520240716.42,37903,13.31,72274.5,6.83,-26.81,-27.51,0,*72
1520240717.67,37904,13.31,72278.5,6.81,-26.33,-27.07,0,*7D
1520240718.96,37905,13.31,72276.0,6.81,-26.33,-26.97,0,*74
1520240720.16,37906,13.31,72274.8,6.83,-26.07,-26.61,0,*7B
1520240721.36,37907,13.31,72278.0,6.83,-26.07,-26.61,0,*7A
1520240722.58,37908,13.31,72276.8,6.85,-27.23,-27.93,0,*78
1520240723.84,37909,13.31,72276.5,6.83,-26.97,-27.61,0,*7C
1520240725.1,37910,13.31,72276.5,6.83,-26.81,-27.35,0,*72
1520240726.35,37911,13.31,72278.0,6.83,-25.81,-26.33,0,*77
1520240727.58,37912,13.31,72276.5,6.85,-25.71,-26.23,0,*7C
1520240728.84,37913,13.25,72272.5,6.85,-25.75,-26.29,0,*73
1520240730.09,37914,13.31,72278.0,6.87,-26.55,-27.03,0,*7E
1520240731.31,37915,13.31,72276.3,6.87,-26.07,-26.61,0,*7D
1520240732.6,37916,13.31,72276.8,6.87,-26.17,-26.77,0,*78
1520240733.88,37917,13.31,72276.5,6.91,-25.97,-26.55,0,*75
1520240735.11,37918,13.31,72276.5,6.91,-25.61,-26.07,0,*74
1520240736.36,37919,13.31,72276.5,6.91,-25.35,-25.97,0,*7E
1520240737.59,37920,13.31,72274.5,6.93,-25.61,-26.13,0,*78
1520240738.82,37921,13.31,72278.3,6.95,-25.87,-26.39,0,*7F
1520240740.07,37922,13.31,72276.3,6.95,-26.55,-27.07,0,*7C
1520240741.31,37923,13.31,72276.3,6.95,-25.91,-26.55,0,*70
1520240742.56,37924,13.31,72274.3,6.95,-26.39,-26.93,0,*7C
1520240743.76,37925,13.25,72276.0,6.97,-26.39,-26.87,0,*7A
1520240745.0,37926,13.25,72274.3,6.99,-26.23,-26.81,0,*7A
1520240746.26,37927,13.31,72276.3,6.99,-26.17,-26.65,0,*76
1520240747.51,37928,13.31,72276.3,6.99,-25.71,-26.23,0,*78
1520240748.74,37929,13.25,72274.0,6.97,-26.03,-26.55,0,*70
1520240749.96,37930,13.31,72274.3,6.97,-26.87,-27.39,0,*7F
1520240751.23,37931,13.25,72274.5,6.99,-26.55,-27.19,0,*7D
1520240752.5,37932,13.31,72274.5,6.99,-26.55,-27.23,0,*77
1520240753.73,37933,13.25,72274.0,6.99,-26.39,-26.87,0,*73
1520240755.02,37934,13.31,72278.3,6.99,-26.33,-26.97,0,*7F
1520240756.27,37935,13.31,72278.0,7.03,-25.81,-26.45,0,*79
1520240757.52,37936,13.31,72276.5,7.05,-25.81,-26.33,0,*7D
1520240758.75,37937,13.31,72276.8,7.05,-25.19,-25.75,0,*7C
1520240759.95,37938,13.25,72272.5,7.05,-24.61,-25.19,0,*77
1520240761.2,37939,13.25,72272.5,7.07,-25.23,-25.75,0,*79
1520240762.41,37940,13.31,72278.3,7.09,-24.93,-25.45,0,*70
1520240763.67,37941,13.25,72278.0,7.09,-25.71,-26.29,0,*75
1520240764.89,37942,13.31,72276.8,7.11,-26.07,-26.65,0,*75
1520240766.14,37943,13.25,72274.0,7.11,-25.55,-26.23,0,*72
1520240767.4,37944,13.25,72274.3,7.13,-26.77,-27.35,0,*72
1520240768.66,37945,13.31,72278.0,7.11,-26.93,-27.67,0,*7C
1520240769.91,37946,13.31,72276.0,7.11,-28.05,-28.85,0,*7D
1520240771.13,37947,13.25,72274.0,7.11,-27.71,-28.37,0,*79
1520240772.39,37948,13.31,72278.8,7.11,-26.93,-27.67,0,*71
1520240773.66,37949,13.25,72274.8,7.11,-25.81,-26.33,0,*70
1520240774.91,37950,13.31,72276.8,7.11,-25.81,-26.39,0,*72
1520240776.17,37951,13.31,72278.3,7.13,-25.75,-26.13,0,*72
1520240777.39,37952,13.25,72276.8,7.13,-27.13,-27.83,0,*7B
1520240778.61,37953,13.25,72276.8,7.11,-25.91,-26.49,0,*77
1520240779.83,37954,13.25,72278.3,7.13,-25.61,-26.13,0,*72
1520240781.07,37955,13.31,72278.3,7.13,-25.13,-25.75,0,*75
1520240782.32,37956,13.31,72278.3,7.15,-25.35,-25.97,0,*78
1520240783.52,37957,13.25,72274.0,7.17,-26.07,-26.61,0,*73
1520240784.72,37958,13.25,72278.5,7.17,-26.45,-27.07,0,*7B
1520240785.98,37959,13.31,72276.0,7.15,-27.45,-28.15,0,*75
1520240787.26,37960,13.25,72276.3,7.15,-27.35,-27.99,0,*73
1520240788.52,37961,13.25,72276.5,7.15,-26.77,-27.29,0,*7E
1520240789.8,37962,13.25,72278.0,7.15,-25.81,-26.33,0,*7D
1520240791.06,37963,13.25,72276.3,7.15,-26.13,-26.65,0,*77
1520240792.34,37964,13.25,72276.0,7.15,-28.79,-29.51,0,*7A
1520240793.64,37965,13.25,72274.0,7.15,-29.35,-30.17,0,*78
1520240794.84,37966,13.25,72276.8,7.13,-28.85,-29.67,0,*78
1520240796.07,37967,13.25,72276.0,7.09,-27.55,-28.21,0,*73
1520240797.29,37968,13.25,72272.5,7.09,-27.89,-28.47,0,*7D
1520240798.54,37969,13.25,72274.5,7.07,-26.87,-27.39,0,*7B
1520240799.76,37970,13.25,72274.0,7.09,-25.91,-26.55,0,*72
1520240800.98,37971,13.25,72276.3,7.09,-26.29,-26.87,0,*7C
1520240802.21,37972,13.25,72276.5,7.09,-26.71,-27.29,0,*77
1520240803.45,37973,13.25,72276.8,7.09,-28.09,-28.79,0,*7D
1520240804.73,37974,13.31,72276.5,7.07,-28.05,-28.91,0,*7E
1520240805.95,37975,13.25,72276.8,7.09,-28.15,-28.75,0,*7A
1520240807.17,37976,13.25,72276.8,7.09,-27.23,-27.77,0,*7E
1520240808.46,37977,13.25,72274.5,7.07,-26.97,-27.61,0,*78
1520240809.72,37978,13.25,72274.5,7.07,-28.47,-29.29,0,*76
1520240810.97,37979,13.25,72274.3,7.07,-27.93,-28.59,0,*77
1520240812.23,37980,13.25,72276.8,7.07,-27.89,-28.63,0,*73
1520240813.47,37981,13.25,72272.0,7.07,-27.89,-28.75,0,*75
1520240814.75,37982,13.25,72272.5,7.03,-27.45,-28.09,0,*79
1520240816.03,37983,13.25,72274.5,7.03,-26.13,-26.77,0,*7D
1520240817.25,37984,13.25,72276.0,7.05,-26.13,-26.65,0,*7F
1520240818.48,37985,13.25,72274.0,7.05,-26.81,-27.51,0,*73
1520240819.68,37986,13.25,72274.5,7.05,-27.77,-28.53,0,*75
1520240820.93,37987,13.25,72272.0,7.03,-28.31,-29.13,0,*7A
1520240822.13,37988,13.25,72278.8,7.05,-27.03,-27.67,0,*70
1520240823.41,37989,13.25,72276.8,7.03,-26.81,-27.45,0,*7C
1520240824.61,37990,13.25,72276.3,7.05,-26.61,-27.29,0,*76
1520240825.84,37991,13.25,72274.8,7.05,-25.97,-26.45,0,*76
1520240827.09,37992,13.25,72276.5,7.09,-25.45,-25.97,0,*7A
1520240828.31,37993,13.25,72276.5,7.09,-25.23,-25.75,0,*77
1520240829.56,37994,13.25,72278.3,7.11,-25.81,-26.39,0,*7A
1520240830.8,37995,13.25,72276.0,7.11,-26.87,-27.45,0,*74
1520240832.0,37996,13.25,72276.0,7.13,-25.87,-26.61,0,*71
1520240833.21,37997,13.25,72274.3,7.13,-26.03,-26.49,0,*75
1520240834.44,37998,13.25,72276.3,7.13,-26.81,-27.51,0,*78
1520240835.67,37999,13.25,72276.8,7.13,-25.87,-26.33,0,*79
1520240836.9,38000,13.25,72278.5,7.15,-25.13,-25.65,0,*74
1520240838.16,38001,13.25,72276.0,7.17,-24.71,-25.29,0,*7A
1520240839.39,38002,13.25,72278.5,7.17,-25.55,-26.23,0,*77
1520240840.66,38003,13.25,72278.0,7.19,-25.45,-26.13,0,*7A
1520240841.9,38004,13.25,72278.8,7.21,-26.33,-26.87,0,*79
1520240843.16,38005,13.25,72276.5,7.19,-28.09,-28.75,0,*77
1520240844.42,38006,13.25,72276.5,7.21,-26.55,-27.19,0,*7D
1520240845.69,38007,13.25,72276.0,7.19,-27.39,-28.09,0,*72
1520240846.96,38008,13.25,72276.5,7.19,-27.45,-28.09,0,*76
1520240848.22,38009,13.25,72276.0,7.17,-28.75,-29.51,0,*79
1520240849.51,38010,13.25,72276.3,7.15,-27.61,-28.21,0,*7F
1520240850.74,38011,13.25,72274.5,7.17,-26.97,-27.71,0,*7E
1520240851.99,38012,13.25,72276.3,7.17,-27.99,-28.91,0,*73
1520240853.24,38013,13.25,72276.5,7.15,-28.47,-29.57,0,*77
1520240854.47,38014,13.25,72274.8,7.11,-29.61,-30.33,0,*7B
1520240855.72,38015,13.25,72276.5,7.15,-28.47,-28.85,0,*7F
1520240856.97,38016,13.25,72276.3,7.11,-27.83,-28.53,0,*74
1520240858.22,38017,13.25,72274.5,7.09,-27.61,-28.43,0,*71
1520240859.45,38018,13.25,72274.5,7.09,-28.79,-29.61,0,*79
1520240860.67,38019,13.25,72276.8,7.09,-27.23,-27.89,0,*70
1520240861.92,38020,13.25,72274.5,7.07,-27.89,-28.63,0,*7F
1520240863.18,38021,13.25,72278.0,7.07,-28.75,-29.83,0,*7D
1520240864.41,38022,13.25,72278.3,7.03,-27.51,-28.31,0,*7B
1520240865.67,38023,13.25,72276.0,7.07,-27.45,-28.31,0,*7B
1520240866.95,38024,13.25,72280.3,7.07,-26.77,-27.39,0,*7B
1520240868.23,38025,13.25,72276.8,7.07,-29.13,-30.01,0,*7A
1520240869.51,38026,13.25,72278.3,7.03,-30.01,-30.73,0,*73
1520240870.79,38027,13.25,72276.8,7.03,-29.13,-29.89,0,*74
1520240872.04,38028,13.25,72278.8,6.99,-28.53,-29.29,0,*76
1520240873.26,38029,13.25,72280.5,6.97,-29.01,-29.83,0,*7F
1520240874.49,38030,13.25,72278.5,6.99,-29.61,-30.45,0,*7D
1520240875.73,38031,13.25,72278.0,6.95,-29.95,-30.83,0,*71
1520240876.94,38032,13.25,72278.0,6.93,-28.85,-29.67,0,*76
1520240878.16,38033,13.25,72276.3,6.93,-28.69,-29.39,0,*7E
1520240879.38,38034,13.25,72276.0,6.93,-28.53,-29.29,0,*71
1520240880.59,38035,13.25,72278.5,6.93,-27.19,-27.93,0,*7E
1520240881.83,38036,13.25,72276.3,6.93,-28.53,-29.35,0,*7E
1520240883.05,38037,13.25,72278.8,6.93,-28.97,-29.73,0,*75
1520240884.3,38038,13.25,72276.3,6.91,-28.53,-29.39,0,*7E
1520240885.58,38039,13.19,72274.8,6.91,-30.39,-31.23,0,*78
1520240886.85,38040,13.25,72282.3,6.87,-30.89,-31.57,0,*79
1520240888.06,38041,13.25,72276.3,6.85,-28.97,-29.83,0,*7C
1520240889.28,38042,13.25,72280.8,6.83,-28.09,-28.85,0,*79
1520240890.54,38043,13.25,72278.8,6.83,-29.13,-30.01,0,*77
1520240891.77,38044,13.25,72278.5,6.83,-29.67,-30.51,0,*76
1520240893.05,38045,13.25,72278.8,6.81,-29.01,-29.89,0,*78
1520240894.27,38046,13.19,72276.3,6.81,-30.23,-31.05,0,*7E
1520240895.5,38047,13.19,72278.0,6.79,-29.61,-30.61,0,*75
1520240896.69,38048,13.19,72276.0,6.79,-30.23,-31.01,0,*73
1520240897.95,38049,13.25,72278.5,6.73,-29.57,-30.51,0,*77
1520240899.2,38050,13.25,72276.5,6.73,-30.67,-31.39,0,*7B
1520240900.43,38051,13.19,72274.5,6.71,-30.55,-31.45,0,*72
1520240901.66,38052,13.25,72278.0,6.67,-31.17,-32.07,0,*74
1520240902.88,38053,13.25,72278.0,6.67,-30.61,-31.33,0,*71
1520240904.15,38054,13.19,72274.8,6.65,-29.95,-30.77,0,*76
1520240905.38,38055,13.19,72276.5,6.63,-29.73,-30.67,0,*78